Weather History for KMTN - November, 2012

Change the Weather History Date:

Monday, November 12, 2012

  Actual Average Record
Temperature  
Mean Temperature 54 °F -  
Max Temperature 66 °F 52 °F 69 °F (2014)
Min Temperature 41 °F 37 °F 30 °F (1996)
Degree Days  
Heating Degree Days 12    
Growing Degree Days 4 (Base 50)    
Moisture  
Dew Point 51 °F    
Average Humidity 91    
Maximum Humidity 100    
Minimum Humidity 73    
Precipitation  
Precipitation 0.00 in - - ()
Sea Level Pressure  
Sea Level Pressure 30.32 in    
Wind  
Wind Speed 4 mph (SE)    
Max Wind Speed 16 mph    
Max Gust Speed 26 mph    
Visibility 7 miles    
Events Rain    
Averages and records for this station are not official NWS values.
T = Trace of Precipitation, MM = Missing Value Source: NWS Daily Summary

Daily Weather History Graph

Daily Weather History Graph

Search for Another Location

Airport or City:

Trip Planner

Search our weather history database for the weather conditions in past years. The results will help you decide how hot, cold, wet, or windy it might be!

Date:

Astronomy

Nov. 12, 2012 Rise Set
Actual Time 6:46 AM EST 4:52 PM EST
Civil Twilight 6:17 AM EST 5:21 PM EST
Nautical Twilight 5:45 AM EST 5:53 PM EST
Astronomical Twilight 5:13 AM EST 6:25 PM EST
Moon 5:09 AM EST (11/12) 3:56 PM EST (11/12)
Length of Visible Light 11h 03m
Length of Day
10h 06m
Waning Crescent, 2% of the Moon is Illuminated
Nov 12
Waning Crescent
Nov 13
New
Nov 20
First Quarter
Nov 28
Full
Dec 6
Last Quarter

Hourly Weather History & Observations

Time (EST) Temp. Dew Point Humidity Pressure Visibility Wind Dir Wind Speed Gust Speed Precip Events Conditions
12:48 AM 44.6 °F 42.8 °F 93% 30.45 in 5.0 mi Calm Calm - N/A   Clear
1:09 AM 42.8 °F 42.8 °F 100% 30.45 in 7.0 mi Calm Calm - N/A   Clear
1:30 AM 42.8 °F 42.8 °F 100% 30.45 in 5.0 mi Calm Calm - N/A   Clear
1:54 AM 42.8 °F 42.8 °F 100% 30.45 in 5.0 mi Calm Calm - N/A   Clear
2:15 AM 42.8 °F 42.8 °F 100% 30.44 in 5.0 mi Calm Calm - N/A   Clear
2:57 AM 42.8 °F 42.8 °F 100% 30.44 in 4.0 mi Calm Calm - N/A   Clear
3:18 AM 42.8 °F 42.8 °F 100% 30.43 in 2.5 mi Calm Calm - N/A   Clear
3:39 AM 42.8 °F 42.8 °F 100% 30.43 in 4.0 mi Calm Calm - N/A   Clear
4:00 AM 42.8 °F 42.8 °F 100% 30.43 in 3.0 mi Calm Calm - N/A   Clear
4:21 AM 42.8 °F 42.8 °F 100% 30.43 in 4.0 mi Calm Calm - N/A   Clear
4:36 AM 42.8 °F 42.8 °F 100% 30.43 in 4.0 mi Calm Calm - N/A   Clear
5:50 AM 42.8 °F 42.8 °F 100% 30.43 in 4.0 mi Calm Calm - N/A   Scattered Clouds
6:45 AM 41.0 °F 41.0 °F 100% 30.43 in 4.0 mi Calm Calm - N/A   Scattered Clouds
7:45 AM 44.6 °F 44.6 °F 100% 30.43 in 3.0 mi Calm Calm - N/A   Scattered Clouds
8:55 AM 53.6 °F 50.0 °F 88% 30.42 in 5.0 mi Calm Calm - N/A   Scattered Clouds
9:45 AM 57.2 °F 53.6 °F 88% 30.41 in 3.0 mi Calm Calm - N/A   Overcast
10:45 AM 59.0 °F 55.4 °F 88% 30.40 in 4.0 mi SE 6.9 mph - N/A   Mostly Cloudy
11:45 AM 62.6 °F 57.2 °F 82% 30.38 in 7.0 mi SE 10.4 mph - N/A   Mostly Cloudy
12:50 PM 64.4 °F 57.2 °F 77% 30.34 in 10.0 mi SE 12.7 mph - N/A   Scattered Clouds
1:50 PM 64.4 °F 57.2 °F 77% 30.31 in 10.0 mi SSE 8.1 mph - N/A   Scattered Clouds
2:45 PM 66.2 °F 57.2 °F 73% 30.28 in 10.0 mi SE 11.5 mph - N/A   Scattered Clouds
3:45 PM 62.6 °F 55.4 °F 77% 30.25 in 10.0 mi SE 9.2 mph - N/A   Scattered Clouds
4:45 PM 60.8 °F 55.4 °F 82% 30.24 in 10.0 mi SSE 11.5 mph - N/A   Mostly Cloudy
5:45 PM 62.6 °F 55.4 °F 77% 30.25 in 10.0 mi SSE 13.8 mph - N/A   Scattered Clouds
6:45 PM 60.8 °F 55.4 °F 82% 30.23 in 10.0 mi SE 12.7 mph - N/A   Scattered Clouds
7:45 PM 59.0 °F 55.4 °F 88% 30.22 in 10.0 mi SE 12.7 mph - N/A   Partly Cloudy
8:45 PM 59.0 °F 55.4 °F 88% 30.21 in 10.0 mi SE 10.4 mph - N/A   Scattered Clouds
9:21 PM 59.0 °F 55.4 °F 88% 30.20 in 10.0 mi SE 11.5 mph - N/A   Mostly Cloudy
9:42 PM 59.0 °F 55.4 °F 88% 30.19 in 10.0 mi SE 9.2 mph - N/A   Overcast
9:50 PM 59.0 °F 57.2 °F 94% 30.19 in 10.0 mi SE 10.4 mph - N/A Rain Light Rain
10:03 PM 59.0 °F 55.4 °F 88% 30.19 in 10.0 mi SE 11.5 mph - N/A   Mostly Cloudy
10:24 PM 59.0 °F 55.4 °F 88% 30.18 in 10.0 mi SE 11.5 mph - N/A   Mostly Cloudy
10:45 PM 59.0 °F 57.2 °F 94% 30.18 in 10.0 mi SE 13.8 mph - N/A   Mostly Cloudy
11:09 PM 60.8 °F 59.0 °F 94% 30.18 in 10.0 mi SSE 16.1 mph 21.9 mph N/A   Mostly Cloudy
11:30 PM 60.8 °F 59.0 °F 94% 30.17 in 10.0 mi SSE 13.8 mph 26.5 mph N/A   Scattered Clouds
11:51 PM 60.8 °F 59.0 °F 94% 30.16 in 10.0 mi SSE 11.5 mph - N/A   Scattered Clouds